Location: Nairn
(57.5833°N, 3.8667°W)
Time: 22:12:59
(UTC+00:00)

S-56A Canister/Altair - Pass Details

Date: 03 October 2022
Orbit: 638 x 2494 km, 38.9° (Epoch: 08 December)

Event Time Altitude Azimuth Distance (km) Brightness Sun altitude
Exits shadow 03:34:51 20° 191° (S) 2,706 9.9 -22.5°
Maximum altitude 03:35:25 20° 185° (S) 2,653 9.9 -22.5°
Drops below altitude 10° 03:40:26 10° 141° (SE) 2,927 10.6 -21.9°
Sets 03:43:29 0° 124° (SE) 3,626 11.3 -21.5°
